Regional Weather Roundup
Issued by NWS

Home | Current Version | Previous Version | Text Only | Print | Product List | Glossary On
Versions: 1 2 3 4 5 6 7 8 9 10 11 12 13 14 15 16 17 18 19 20 21 22 23 24 25 26 27 28 29 30 31 32 33 34 35 36 37 38 39 40 41 42 43 44 45 46 47 48 49 50
000
ASUS43 KDTX 232110
RWRMI
MICHIGAN HOURLY REGIONAL WEATHER ROUNDUP
NATIONAL WEATHER SERVICE DETROIT/PONTIAC MI
500 PM EDT SUN JUL 23 2017

NOTE: "FAIR" INDICATES FEW OR NO CLOUDS BELOW 12,000 FEET WITH NO
SIGNIFICANT WEATHER AND/OR OBSTRUCTION TO VISIBILITY.

MIZ047>049-052>055-059>063-066>070-074>076-081>083-232200-
SOUTHEAST LOWER MICHIGAN

CITY           SKY/WX    TMP DP  RH WIND       PRES   REMARKS
ADRIAN         LGT RAIN  73  69  87 NE5       29.76F
ALMA           CLOUDY    82  65  55 W16       29.74F
ANN ARBOR      CLOUDY    84  68  58 N6        29.75F
BAD AXE        SUNNY     80  66  62 W7        29.73F
CARO           MOSUNNY   82  67  58 SW7       29.72F
DETROIT CITY   CLOUDY    79  69  71 SE8       29.75S
DETROIT        LGT RAIN  80  69  69 SW6       29.75F
FLINT          SUNNY     82  65  56 VRB7      29.75F
GROSSE ILE     DRIZZLE   77  70  79 S5        29.74F
HILLSDALE      CLOUDY    81  68  65 N5        29.76F
HOWELL         MOSUNNY   82  65  57 NW5       29.76F

CITY           SKY/WX    TMP DP  RH WIND       PRES   REMARKS
JACKSON        LGT RAIN  79  69  71 SE3       29.75F
LAMBERTVILLE   LGT RAIN  73  67  82 N5        29.76R
LANSING        SUNNY     85  65  51 W12       29.75F
LAPEER         CLOUDY    82  65  55 NW6       29.76S
MASON          PTSUNNY   81  67  62 NW6       29.75F
MONROE         PTSUNNY   73  68  84 CALM      29.75F
MT. CLEMENS    PTSUNNY   80  72  74 S10       29.72F
PONTIAC        MOSUNNY   82  66  58 W7        29.75S
PORT HOPE        N/A     73  68  84 E14       29.71F
PORT HURON     SUNNY     82  68  61 SW6       29.73F
TRI CITIES     MOSUNNY   82  70  66 SW10      29.73F
MIDLAND        FAIR      84  64  49 W16       29.71F
TROY           CLOUDY    84  64  50 W5        29.77S
SAGINAW HB     PTSUNNY   81  64  57 SW8       29.72F
$$
MIZ043>046-050>051-056>058-064>065-071>073-077>080-232200-
SOUTHWEST LOWER MICHIGAN

CITY           SKY/WX    TMP DP  RH WIND       PRES   REMARKS
BATTLE CREEK   MOSUNNY   86  67  52 NW15G22   29.77S
BENTON HARBOR  MOSUNNY   81  67  62 VRB3      29.78S
BIG RAPIDS     MOSUNNY   78  62  56 NW10G18   29.77S
COLDWATER      PTSUNNY   83  68  60 NW10      29.76S
FREMONT        PTSUNNY   77  64  63 N9        29.78S
HOLLAND        CLOUDY    77  69  76 NW8       29.79S
GRAND RAPIDS   PTSUNNY   83  66  56 NW13      29.76S
IONIA          FAIR      84  65  51 NW15G21   29.74F
KALAMAZOO      MOSUNNY   86  65  49 N15       29.76F
LUDINGTON      CLOUDY    73  67  82 N7        29.79S
MARSHALL       MOSUNNY   86  66  50 NW12G17   29.76R
MOUNT PLEASANT SUNNY     82  57  42 W10G17    29.73F
MUSKEGON       CLOUDY    78  70  76 W10       29.79R
SOUTH HAVEN    SUNNY     80  72  76 NW12      29.78F
$$
MIZ016>042-232200-
NORTHERN LOWER MICHIGAN

CITY           SKY/WX    TMP DP  RH WIND       PRES   REMARKS
ALPENA         CLOUDY    67  66  97 NE9       29.75F
BEAVER ISLAND  CLOUDY    64  61  88 E7        29.83R
BELLAIRE       PTSUNNY   73  63  68 CALM      29.77S
CADILLAC       PTSUNNY   71  62  71 W9        29.80R
CHARLEVOIX     MOSUNNY   73  61  66 N6        29.81S
FRANKFORT      MOSUNNY   72  65  78 N9        29.81R
GAYLORD        CLOUDY    70  60  70 N6        29.79F
GRAYLING       CLOUDY    67  59  76 N8        29.79R
HARBOR SPRINGS PTSUNNY   69  60  75 NE7       29.79R
HOUGHTON LAKE  LGT RAIN  68  63  84 W9        29.79R
MANISTEE       MOSUNNY   74  65  73 NW8G17    29.79S
OSCODA         LGT RAIN  64  63  94 W13       29.74R
PELLSTON       CLOUDY    65  61  87 NE13      29.82R
ROGERS CITY    CLOUDY    63  62  95 NE9G20    29.79S
TRAVERSE CITY  PTSUNNY   73  64  73 NW16      29.78R
$$
MIZ007>008-015-232200-
EASTERN UPPER MICHIGAN

CITY           SKY/WX    TMP DP  RH WIND       PRES   REMARKS
KINROSS        LGT RAIN  61  57  88 NE13      29.85R
MACKINAC ISLAN CLOUDY    62  62 100 NE10G17   29.82S
NEWBERRY       CLOUDY    58  57  97 NE9G17    29.86R FOG
S. S. MARIE    LGT RAIN  60  57  89 NE6       29.85R
MUNISING         N/A     61  60  97 NE23      29.88R
$$
MIZ004>006-011>014-085-232200-
CENTRAL UPPER MICHIGAN

CITY           SKY/WX    TMP DP  RH WIND       PRES   REMARKS
MANISTIQUE     CLOUDY    63  59  89 NE12G20   29.83R
ESCANABA       CLOUDY    63  58  83 N10G22    29.85R
MENOMINEE      MOSUNNY   73  63  68 N18G24    29.82R
SAWYER-GWINN   CLOUDY    55  54  94 N20       29.91R
$$
MIZ001>003-009>011-084-232200-
WESTERN UPPER MICHIGAN

CITY           SKY/WX    TMP DP  RH WIND       PRES   REMARKS
IRON MOUNTAIN  CLOUDY    67  55  65 N16G22    29.89R
HOUGHTON       CLOUDY    62  54  74 E7        29.96R
COPPER HARBOR    N/A     58  51  78 NE5       29.96S
IRONWOOD       CLOUDY    58  57  97 N6        29.99R
$$

ABBREVIATIONS USED IN REMARKS
   TC - TEMPERATURE IN CELSIUS
  WCI - WIND CHILL INDEX
   HX - HEAT INDEX
  VSB - VISIBILITY





USA.gov is the U.S. government's official web portal to all federal, state and local government web resources and services.